SBI3224 UHWW-UHBB

Flight info

Callsign SBI3224
Flight time N/A
Altitude 35000
Route DOLMA2P DOLMA B356 TD B355 HAB/K0837F340 B150 AMERA AMERA2G
Aircraft A321/M-SDE3FGHIRWY/LB1

Departure

Time 2026-04-19 04:27
Airport Vladivostok International Airport (UHWW)

Arrival

Time N/A
Airport Ignatyevo Airport (UHBB)
Time Latitude Longitude Altitude Speed Heading
2026-04-19 04:04 43.39670 132.16332 53 ft 0 kts 151°
2026-04-19 04:17 43.39682 132.16324 53 ft 2 kts 151°
2026-04-19 04:17 43.39695 132.16313 53 ft 2 kts 151°
2026-04-19 04:18 43.39708 132.16304 53 ft 2 kts 151°
2026-04-19 04:18 43.39719 132.16295 53 ft 0 kts 151°
2026-04-19 04:18 43.39729 132.16287 53 ft 2 kts 140°
2026-04-19 04:18 43.39739 132.16272 53 ft 2 kts 121°
2026-04-19 04:19 43.39745 132.16252 53 ft 2 kts 104°
2026-04-19 04:19 43.39746 132.16243 53 ft 0 kts 96°
2026-04-19 04:19 43.39745 132.16252 53 ft 1 kts 100°
2026-04-19 04:19 43.39750 132.16283 53 ft 1 kts 62°
2026-04-19 04:20 43.39752 132.16287 53 ft 0 kts 61°
2026-04-19 04:22 43.39753 132.16289 53 ft 0 kts 61°
2026-04-19 04:22 43.39761 132.16309 53 ft 3 kts 60°
2026-04-19 04:22 43.39775 132.16344 53 ft 4 kts 60°
2026-04-19 04:23 43.39794 132.16389 53 ft 6 kts 60°
2026-04-19 04:23 43.39818 132.16449 53 ft 8 kts 60°
2026-04-19 04:23 43.39856 132.16540 53 ft 12 kts 61°
2026-04-19 04:23 43.39905 132.16658 53 ft 14 kts 60°
2026-04-19 04:24 43.39955 132.16785 53 ft 15 kts 63°
2026-04-19 04:24 43.40007 132.16913 53 ft 15 kts 60°
2026-04-19 04:24 43.40059 132.17042 53 ft 15 kts 58°
2026-04-19 04:24 43.40148 132.17062 53 ft 14 kts 333°
2026-04-19 04:25 43.40238 132.16995 53 ft 14 kts 331°
2026-04-19 04:25 43.40318 132.16933 53 ft 7 kts 331°
2026-04-19 04:25 43.40328 132.16927 53 ft 0 kts 331°
2026-04-19 04:25 43.40337 132.16919 53 ft 3 kts 331°
2026-04-19 04:26 43.40371 132.16893 53 ft 7 kts 331°
2026-04-19 04:26 43.40421 132.16834 53 ft 11 kts 292°
2026-04-19 04:26 43.40408 132.16742 53 ft 0 kts 241°
2026-04-19 04:26 43.40406 132.16737 53 ft 0 kts 240°
2026-04-19 04:27 43.40351 132.16609 53 ft 49 kts 239°
2026-04-19 04:27 43.40027 132.15805 53 ft 138 kts 240°
2026-04-19 04:27 43.39493 132.14439 381 ft 179 kts 236°
2026-04-19 04:27 43.38873 132.12927 1040 ft 181 kts 236°
2026-04-19 04:28 43.38263 132.11475 1713 ft 175 kts 237°
2026-04-19 04:28 43.37669 132.10019 2295 ft 178 kts 238°
2026-04-19 04:28 43.37035 132.08443 2727 ft 198 kts 238°
2026-04-19 04:28 43.36357 132.06729 3274 ft 213 kts 240°
2026-04-19 04:29 43.35634 132.04903 3949 ft 223 kts 240°
2026-04-19 04:29 43.34893 132.03030 4661 ft 229 kts 240°
2026-04-19 04:29 43.33949 132.01294 5482 ft 230 kts 223°
2026-04-19 04:29 43.32628 132.00125 6341 ft 232 kts 194°
2026-04-19 04:30 43.31025 131.99939 7002 ft 247 kts 174°
2026-04-19 04:30 43.29416 132.01067 7257 ft 281 kts 137°
2026-04-19 04:30 43.28445 132.03467 7818 ft 298 kts 104°
2026-04-19 04:30 43.28444 132.06317 8552 ft 303 kts 75°
2026-04-19 04:31 43.29026 132.09070 9309 ft 305 kts 71°
2026-04-19 04:31 43.29650 132.11827 10056 ft 307 kts 71°
2026-04-19 04:31 43.30259 132.14690 10625 ft 318 kts 72°
2026-04-19 04:31 43.30851 132.17667 10948 ft 335 kts 73°
2026-04-19 04:32 43.31452 132.20847 11252 ft 352 kts 73°
2026-04-19 04:32 43.32063 132.24182 11537 ft 368 kts 73°
2026-04-19 04:32 43.32692 132.27672 11932 ft 380 kts 74°
2026-04-19 04:32 43.33311 132.31155 12557 ft 383 kts 74°
2026-04-19 04:33 43.33948 132.34741 13196 ft 386 kts 73°